Bridgeport, CT

8:02 PM EDT on October 14, 2019 (GMT -0400)
Sikorsky Memorial

Weather History for KBDR - September, 2019

Change the Weather History Date:

Monday, September 16, 2019

  Actual Average Record
Temperature  
Mean Temperature 68 °F 66 °F  
Max Temperature 76 °F 74 °F 89 °F (1991)
Min Temperature 60 °F 58 °F 43 °F (1964)
Degree Days  
Heating Degree Days 0 2  
Month to date heating degree days 4 15  
Since 1 July heating degree days 4 19  
Cooling Degree Days 3 3  
Month to date cooling degree days 76 73  
Year to date cooling degree days 979 791  
Growing Degree Days 20 (Base 50)    
Moisture  
Dew Point 59 °F    
Average Humidity 72    
Maximum Humidity 87    
Minimum Humidity 57    
Precipitation  
Precipitation 0.02 in 0.11 in 3.00 in (1999)
Month to date precipitation 0.80 1.83  
Year to date precipitation 36.48 30.73  
Snow  
Snow 0.00 in 0.00 in 0.00 in (2002)
Month to date snowfall 0.0 0.0  
Since 1 July snowfall 0.0 0.0  
Snow Depth 0.00 in    
Sea Level Pressure  
Sea Level Pressure 30.05 in    
Wind  
Wind Speed 5 mph (NNW)    
Max Wind Speed 10 mph    
Max Gust Speed 13 mph    
Visibility 10 miles    
Events Rain    
T = Trace of Precipitation, MM = Missing Value Source: NWS Daily Summary

Daily Weather History Graph

Daily Weather History Graph

Search for Another Location

Airport or City:

Astronomy

Sep. 16, 2019 Rise Set
Actual Time 6:33 AM EDT 7:00 PM EDT
Civil Twilight 6:06 AM EDT 7:27 PM EDT
Nautical Twilight 5:33 AM EDT 8:00 PM EDT
Astronomical Twilight 5:00 AM EDT 8:33 PM EDT
Moon 8:32 PM EDT (9/16) 8:38 AM EDT (9/16)
Length of Visible Light 13h 21m
Length of Day
12h 26m
Waning Gibbous, 94% of the Moon is Illuminated
Sep 16
Waning Gibbous
Sep 21
Last Quarter
Sep 28
New
Oct 5
First Quarter
Oct 13
Full

Hourly Weather History & Observations

Time (EDT) Temp. Dew Point Humidity Pressure Visibility Wind Dir Wind Speed Gust Speed Precip Events Conditions
12:52 AM 66.0 °F 57.9 °F 75% 30.05 in 10.0 mi WNW 3.5 mph - N/A   Clear
1:52 AM 69.1 °F 57.0 °F 65% 30.05 in 10.0 mi WNW 3.5 mph - N/A   Clear
2:52 AM 68.0 °F 59.0 °F 73% 30.04 in 10.0 mi West 4.6 mph - N/A   Clear
3:52 AM 66.0 °F 59.0 °F 78% 30.05 in 10.0 mi ENE 4.6 mph - N/A   Mostly Cloudy
4:52 AM 66.0 °F 59.0 °F 78% 30.05 in 10.0 mi North 4.6 mph - N/A   Overcast
5:52 AM 66.0 °F 59.0 °F 78% 30.07 in 10.0 mi North 3.5 mph - 0.00 in Rain Light Rain
6:52 AM 64.9 °F 60.1 °F 84% 30.07 in 9.0 mi NNE 5.8 mph - 0.01 in Rain Light Rain
7:52 AM 64.9 °F 61.0 °F 87% 30.07 in 10.0 mi NNE 4.6 mph - 0.00 in Rain Light Rain
8:52 AM 66.0 °F 60.1 °F 81% 30.08 in 10.0 mi Calm Calm - 0.00 in   Overcast
9:52 AM 68.0 °F 59.0 °F 73% 30.09 in 10.0 mi NW 4.6 mph - N/A   Overcast
10:52 AM 69.1 °F 60.1 °F 73% 30.07 in 10.0 mi NNE 6.9 mph - 0.01 in   Overcast
11:52 AM 71.1 °F 60.1 °F 68% 30.07 in 10.0 mi NNE 6.9 mph - N/A   Scattered Clouds
12:52 PM 72.0 °F 60.1 °F 66% 30.05 in 10.0 mi NNE 4.6 mph - N/A   Mostly Cloudy
1:52 PM 73.9 °F 61.0 °F 64% 30.04 in 10.0 mi Variable 5.8 mph - N/A   Overcast
2:05 PM 72.0 °F 61.0 °F 68% 30.04 in 10.0 mi NNE 6.9 mph - N/A   Overcast
2:34 PM 73.9 °F 60.1 °F 62% 30.03 in 10.0 mi West 4.6 mph - N/A   Overcast
2:52 PM 73.9 °F 59.0 °F 59% 30.03 in 10.0 mi WNW 6.9 mph - N/A   Overcast
3:52 PM 73.0 °F 57.9 °F 59% 30.02 in 10.0 mi West 6.9 mph - N/A   Overcast
4:52 PM 73.9 °F 61.0 °F 64% 30.01 in 10.0 mi SW 6.9 mph - N/A   Clear
5:52 PM 73.0 °F 62.1 °F 68% 30.01 in 10.0 mi SSW 8.1 mph - N/A   Clear
6:52 PM 71.1 °F 63.0 °F 75% 30.01 in 10.0 mi Calm Calm - N/A   Clear
7:52 PM 68.0 °F 57.0 °F 68% 30.03 in 10.0 mi Calm Calm - N/A   Clear
8:52 PM 66.9 °F 55.9 °F 68% 30.04 in 10.0 mi NNE 5.8 mph - N/A   Clear
9:52 PM 66.0 °F 51.1 °F 59% 30.05 in 10.0 mi North 5.8 mph - N/A   Clear
10:52 PM 64.0 °F 51.1 °F 63% 30.06 in 10.0 mi Calm Calm - N/A   Clear
11:52 PM 61.0 °F 52.0 °F 72% 30.07 in 10.0 mi North 3.5 mph - N/A   Clear